Location: Pianadetto
(44.4000°N, 10.1000°E)
Time: 20:27:10
(UTC+00:00)

Lacrosse 5 - Pass Details

Date: 26 May 2022
Orbit: 714 x 724 km, 57.0° (Epoch: 09 March)

Event Time Altitude Azimuth Distance (km) Brightness Sun altitude
Exits shadow 02:37:42 - 264° (W) 2,481 4.2 -10.0°
Reaches altitude 10° 02:38:28 10° 267° (W) 2,213 3.9 -9.9°
Maximum altitude 02:43:07 35° 333° (NNW) 1,171 3.1 -9.3°
Drops below altitude 10° 02:47:47 10° 39° (NE) 2,216 6.0 -8.7°
Sets 02:50:22 0° 48° (NE) 3,137 7.8 -8.3°
